Tracking 31027 objects as of 19-Jul-2025
HD Live streaming from Space Station
objects crossing your sky now

COSMOS 886 DEB

Track COSMOS 886 DEB now!
10-day predictions


NORAD ID: 9656
Int'l Code: 1976-126N
Perigee: 638.1 km
Apogee: 1,978.2 km
Inclination: 65.8 °
Period: 111.6 minutes
Semi major axis: 7679 km
RCS: 0.0512 m2 (small)
Launch date: December 27, 1976
Source: Commonwealth of Independent States (former USSR) (CIS)
Launch site: TYURATAM MISSILE AND SPACE COMPLEX (TTMTR)

Note: This is SATELLITE DEBRIS
Your satellite tracking list
ATLAS 5 CENTAUR DEB
Track 1 satellite(s)




NASA's NSSDC Master Catalog

Two Line Element Set (TLE):
1 09656U 76126N   25199.49164285  .00000275  00000-0  22971-3 0  9991
2 09656  65.8198 121.8100 0872546 220.4639 132.8267 12.90119939239159
Source of the keplerian elements: AFSPC